Location: LDNL
(36.4545°S, 141.6685°E)
Time: 22:23:01
(UTC+11:00)

Courier 1B Rocket - Pass Details

Date: 02 February 2023
Orbit: 920 x 1202 km, 28.2° (Epoch: 26 March)

Event Time Altitude Azimuth Distance (km) Brightness Sun altitude
Rises 07:14:09 0° 296° (WNW) 4,085 7.6 3.7°
Reaches altitude 10° 07:17:09 10° 303° (WNW) 3,134 7.1 4.2°
Maximum altitude 07:24:25 42° 10° (N) 1,659 6.3 5.6°
Drops below altitude 10° 07:31:33 10° 77° (ENE) 3,087 8.9 7.0°
Sets 07:34:29 0° 84° (E) 4,018 9.7 7.6°
